Flag for Germany Weather past 2 weeks in Bernau bei Berlin, Brandenburg, Germany

Now
40 °F

Overcast.


Feels Like: 37 °F
Forecast: 31 / 39 °F
Wind: 5 mph from Northwest

Location: Berlin-Tegel

Current Time: Jan 27, 2015 at 5:56:41 PM

Latest Report: Jan 27, 2015 at 5:00 PM


Visibility: 13 mi

Pressure: 29.96 "Hg

Humidity: 80%

Dew point: 34 °F

Location of Bernau bei BerlinLocation

Historic Weather in Bernau bei Berlin — Graph

°F

Bernau bei Berlin temperature yesterday

Maximum temperature yesterday: 40 °F (at 4:00 PM)
Minimum temperature yesterday: 34 °F (at 3:00 AM)
Average temperature yesterday: 37 °F

Past Weeks' High & Low Weather Summary

 TemperatureHumidityPressure
High54 °F (Jan 13, 3:00 PM)100% (Jan 18, 6:00 AM)30.32 "Hg (Jan 18, 6:00 AM)
Low27 °F (Jan 19, 8:00 AM)54% (Jan 13, 7:00 PM)29.57 "Hg (Jan 15, 8:00 PM)
Average37 °F87%29.96 "Hg
* Reported Jan 12 4:00 PM — Jan 27 4:00 PM, Bernau bei Berlin, Weather by CustomWeather, © 2014

Note: Actual official high and low records may vary slightly from our data, if they occured in-between our weather recording intervals... More about our weather records

Advertising

Bernau bei Berlin weather history for previous 24 hours

 ConditionsComfort  
Time TempWeatherWind HumidityBarometerVisibility
4:00 PM
Jan 27
40 °FLight rain. Overcast.5 mph84%29.95 "Hg9 mi
3:00 PM40 °FSprinkles. Overcast.7 mph82%29.93 "Hg16 mi
2:00 PM40 °FOvercast.6 mph84%29.92 "Hg19 mi
1:00 PM39 °FLight rain. Overcast.6 mph85%29.92 "Hg19 mi
12:00 PM39 °FOvercast.5 mph88%29.92 "Hg16 mi
11:00 AM38 °FDrizzle. Overcast.5 mph91%29.92 "Hg7 mi
10:00 AM38 °FLight rain. Overcast.5 mph93%29.90 "Hg6 mi
9:00 AM38 °FLight rain. Low clouds.5 mph97%29.89 "Hg6 mi
8:00 AM38 °FLight rain. Low clouds.5 mph97%29.87 "Hg19 mi
7:00 AM38 °FLight rain. Low clouds.6 mph96%29.86 "Hg19 mi
6:00 AM38 °FLight rain. Overcast.6 mph95%29.85 "Hg19 mi
5:00 AM38 °FLight rain. Low clouds.5 mph96%29.84 "Hg16 mi
4:00 AM38 °FLight rain. Low clouds.5 mph98%29.83 "Hg6 mi
3:00 AM38 °FRain. Low clouds.7 mph96%29.83 "Hg5 mi
2:00 AM39 °FRain. Low clouds.6 mph97%29.82 "Hg5 mi
1:00 AM39 °FLow clouds.5 mph98%29.82 "Hg5 mi
12:00 AM36 °FLight rain. Overcast.5 mph99%29.82 "Hg3 mi
11:00 PM
Jan 26
35 °FLight rain. Low clouds.3 mph98%29.84 "Hg3 mi
10:00 PM35 °FLight rain. Low clouds.5 mph99%29.86 "Hg3 mi
9:00 PM35 °FLight rain. Low clouds.5 mph97%29.88 "Hg3 mi
8:00 PM36 °FRain. Low clouds.6 mph96%29.90 "Hg4 mi
7:00 PM37 °FLight rain. Overcast.6 mph93%29.93 "Hg8 mi
6:00 PM39 °FLight rain. Overcast.7 mph83%29.96 "Hg9 mi
5:00 PM40 °FOvercast.6 mph81%29.98 "Hg8 mi
Weather by CustomWeather, © 2014

See weather overviewHow to use our weather pages